User: anonymous   Login
Location: Unspecified
(0.0000°N, 0.0000°E)
Time: 17:07:11
(UTC+00:00)
Language:

DX 1 - Orbit

View from above orbital plane
View from above orbital plane
View from above satellite
View from above satellite

Ground track
Ground track

The orbit data is extracted from the following two-line orbital elements,

1 40071U 14037C   17265.21671271  .00000195  00000-0  32500-4 0  9994
2 40071  98.3462  20.1871 0009859  99.6270 260.6054 14.81055769173335
Epoch (UTC): 22 September 2017 05:12:03
Eccentricity: 0.0009859
inclination: 98.3462°
perigee height: 619 km
apogee height: 633 km
right ascension of ascending node: 20.1871°
argument of perigee: 99.6270°
revolutions per day: 14.81055769
mean anomaly at epoch: 260.6054°
orbit number at epoch: 17333

The dashed part of the orbit path shows where the satellite is in the earth's shadow,  

DLR